Location: Klein M�hlingen
(51.9472°N, 11.7453°E)
Time: 11:14:42
(UTC+00:00)

Cosmos 2366 rocket - Pass Details

Date: 09 April 2020
Orbit: 955 x 997 km, 82.9° (Epoch: 25 May)

Event Time Altitude Azimuth Distance (km) Brightness Sun altitude
Rises 19:34:36 0° 350° (N) 3,649 7.7 -14.0°
Reaches altitude 10° 19:37:08 10° 353° (N) 2,699 6.9 -14.3°
Maximum altitude 19:43:18 71° 78° (ENE) 1,016 3.9 -15.1°
Enters shadow 19:48:11 17° 160° (SSE) 2,233 5.4 -15.7°
